WP3OF-1 Weather Reports


time (UTC)temp
F
wind
direction
speed
knots
gust
knots
rain 1hr
in
rain 24hr
in
rain mn
in
humidity
%
barometer
mb
20260505113008 79 110 7.0 8.7 0.00 0.02 0.02 86 1017.9
20260505112504 79 113 5.2 9.6 0.00 0.02 0.02 86 1018.0
20260505112002 79 112 5.2 7.8 0.00 0.02 0.02 87 1017.8
20260505111456 79 103 10.4 13.9 0.00 0.02 0.02 87 1017.8
20260505110952 79 118 7.0 12.2 0.00 0.02 0.02 87 1017.5
20260505110449 78 101 3.5 7.8 0.00 0.02 0.02 89 1017.4
20260505101915 76 114 5.2 7.0 0.00 0.02 0.02 92 1016.8
20260505101414 76 95 6.1 7.0 0.00 0.02 0.02 93 1017.0
20260505100911 76 95 6.1 7.0 0.00 0.02 0.02 93 1016.8
20260505100408 76 89 5.2 7.0 0.00 0.02 0.02 92 1016.7
20260505095903 76 98 7.0 7.8 0.00 0.02 0.02 92 1016.7
20260505095400 77 90 5.2 7.8 0.00 0.02 0.02 92 1016.8
20260505094856 77 95 7.0 8.7 0.00 0.02 0.02 92 1017.0
20260505094354 76 89 5.2 7.0 0.00 0.02 0.02 92 1016.8
20260505093849 76 107 5.2 7.8 0.00 0.02 0.02 92 1017.1
20260505093347 76 81 5.2 7.8 0.00 0.02 0.02 92 1016.9
20260505092844 76 108 5.2 7.0 0.00 0.02 0.02 92 1016.8
20260505092342 76 82 5.2 7.0 0.00 0.02 0.02 92 1016.6
20260505091839 76 93 5.2 7.8 0.00 0.02 0.02 92 1016.7
20260505091337 77 90 5.2 7.0 0.00 0.02 0.02 91 1016.8
20260505090835 77 94 7.0 11.3 0.00 0.02 0.02 91 1016.4
20260505090333 77 96 8.7 9.6 0.00 0.02 0.02 91 1016.5
20260505085830 77 86 7.8 8.7 0.00 0.02 0.02 91 1016.3
20260505085327 77 93 7.8 8.7 0.00 0.02 0.02 91 1016.3
20260505084825 77 102 9.6 11.3 0.00 0.02 0.02 91 1016.4
20260505084323 77 105 8.7 12.2 0.00 0.02 0.02 91 1016.3
20260505083820 76 110 9.6 11.3 0.00 0.02 0.02 91 1016.4
20260505083318 76 105 7.0 11.3 0.00 0.02 0.02 91 1016.6
20260505082814 77 98 9.6 13.0 0.00 0.02 0.02 91 1016.5
20260505082311 77 111 9.6 12.2 0.00 0.02 0.02 92 1016.3
20260505081807 77 112 7.8 8.7 0.00 0.02 0.02 92 1016.4
20260505081304 77 101 7.8 11.3 0.00 0.02 0.02 92 1015.9
20260505080800 77 93 8.7 9.6 0.00 0.02 0.02 92 1016.2
20260505080256 77 88 7.0 12.2 0.00 0.02 0.02 92 1016.1
20260505075752 77 95 8.7 11.3 0.00 0.02 0.02 92 1016.1
20260505075249 77 92 7.8 11.3 0.00 0.02 0.02 92 1016.1
20260505074747 77 98 8.7 9.6 0.00 0.02 0.02 92 1016.1
20260505074244 77 88 7.8 9.6 0.00 0.02 0.02 92 1016.2
20260505073741 77 98 7.8 9.6 0.00 0.02 0.02 92 1015.9
20260505073239 77 87 8.7 9.6 0.00 0.02 0.02 92 1015.9
20260505072735 77 93 8.7 8.7 0.00 0.02 0.02 92 1016.1
20260505072231 77 86 8.7 11.3 0.00 0.02 0.02 92 1016.2
20260505071727 77 106 7.8 11.3 0.00 0.02 0.02 92 1015.9
20260505071224 77 109 8.7 9.6 0.00 0.02 0.02 92 1015.8
20260505070722 77 97 9.6 11.3 0.00 0.02 0.02 92 1016.1
20260505070218 77 90 8.7 11.3 0.00 0.02 0.02 92 1015.9
20260505065714 77 96 9.6 11.3 0.00 0.02 0.02 92 1016.1
20260505065211 77 113 10.4 11.3 0.00 0.02 0.02 92 1016.2
20260505064708 77 86 7.8 9.6 0.00 0.02 0.02 92 1016.3
20260505064206 77 96 7.8 12.2 0.00 0.02 0.02 92 1016.3
20260505063703 77 95 7.8 9.6 0.00 0.02 0.02 92 1016.4
20260505063159 77 111 7.0 11.3 0.00 0.02 0.02 92 1016.3
20260505062655 76 101 7.0 8.7 0.00 0.02 0.02 92 1016.3
20260505062153 76 106 7.8 9.6 0.00 0.02 0.02 92 1016.3
20260505061650 76 90 7.0 7.8 0.00 0.02 0.02 92 1016.4
20260505061148 76 104 5.2 7.0 0.00 0.02 0.02 92 1016.4
20260505060645 76 83 7.8 9.6 0.00 0.02 0.02 92 1016.5
20260505060142 77 107 7.8 11.3 0.00 0.02 0.02 92 1016.5
20260505055637 77 85 7.8 8.7 0.00 0.02 0.02 93 1016.7
20260505055134 76 94 7.0 8.7 0.00 0.02 0.02 93 1016.7
20260505054632 77 97 7.8 9.6 0.00 0.02 0.02 93 1016.8
20260505054129 77 84 7.8 9.6 0.00 0.02 0.02 93 1016.6
20260505053626 77 93 8.7 9.6 0.00 0.02 0.02 93 1016.8
20260505053123 77 87 8.7 9.6 0.00 0.02 0.02 93 1017.1
20260505052620 77 80 9.6 9.6 0.00 0.02 0.02 93 1017.0
20260505052117 76 96 10.4 12.2 0.00 0.02 0.02 93 1017.0
20260505051614 76 96 7.8 8.7 0.00 0.02 0.02 93 1017.2
20260505051112 77 92 5.2 7.8 0.00 0.02 0.02 93 1017.1
20260505050610 77 90 7.0 11.3 0.00 0.02 0.02 92 1017.5
20260505050108 76 109 9.6 12.2 0.00 0.02 0.02 93 1017.2
20260505041537 77 84 8.7 9.6 0.00 0.02 0.02 93 1017.5
20260505041035 77 114 5.2 7.8 0.12 0.02 0.02 93 1017.7
20260505040532 77 92 5.2 7.8 0.19 0.02 0.02 92 1017.8
20260505040029 77 95 7.8 8.7 0.07 0.02 0.02 92 1017.7
20260505035525 77 98 7.8 9.6 0.00 0.01 0.01 92 1017.8
20260505035022 77 86 8.7 9.6 0.00 0.01 0.01 92 1017.7
20260505034518 77 83 7.8 9.6 0.00 0.01 0.01 92 1017.8
20260505034016 78 99 8.7 11.3 0.00 0.01 0.01 92 1018.1
20260505033513 78 76 8.7 9.6 0.00 0.01 0.01 92 1018.0
20260505033011 78 93 8.7 11.3 0.00 0.01 0.01 93 1017.9
20260505032508 77 99 7.0 9.6 0.00 0.01 0.01 93 1018.0
20260505032004 77 91 7.8 8.7 0.00 0.01 0.01 93 1018.0
20260505031501 77 99 8.7 13.0 0.00 0.01 0.01 93 1017.8
20260505030958 77 73 7.0 12.2 0.00 0.01 0.01 93 1017.9
20260505030454 77 94 9.6 9.6 0.00 0.01 0.01 93 1017.7
20260505025949 77 115 9.6 9.6 0.00 0.01 0.01 93 1017.9
20260505025447 77 80 7.8 9.6 0.00 0.01 0.01 93 1017.9
20260505024946 77 82 8.7 11.3 0.00 0.01 0.01 93 1017.9
20260505024443 77 90 8.7 11.3 0.00 0.01 0.01 93 1018.0
20260505023940 77 87 7.8 11.3 0.00 0.01 0.01 93 1017.9
20260505023437 77 99 7.8 8.7 0.00 0.01 0.01 93 1017.9
20260505022934 77 99 8.7 9.6 0.00 0.01 0.01 93 1017.8
20260505022432 77 91 7.8 12.2 0.00 0.01 0.01 92 1017.9
20260505021928 77 94 9.6 13.0 0.00 0.01 0.01 92 1017.8
20260505021425 77 90 10.4 13.0 0.00 0.01 0.01 92 1017.9
20260505020920 77 76 8.7 11.3 0.00 0.01 0.01 92 1017.9
20260505020416 77 90 8.7 11.3 0.00 0.01 0.01 92 1017.9
20260505015913 77 84 9.6 11.3 0.00 0.01 0.01 92 1017.6
20260505015411 77 101 7.8 9.6 0.00 0.01 0.01 92 1017.8
20260505014908 77 92 7.8 11.3 0.00 0.01 0.01 92 1017.9
20260505014404 77 84 8.7 11.3 0.00 0.01 0.01 92 1017.6
20260505013901 77 93 8.7 13.0 0.00 0.01 0.01 92 1017.6
20260505013358 77 101 7.0 8.7 0.00 0.01 0.01 92 1017.9
20260505012856 77 97 7.8 8.7 0.00 0.01 0.01 92 1017.7
20260505012354 77 98 6.1 7.8 0.00 0.01 0.01 92 1017.6
20260505011850 77 83 7.8 9.6 0.00 0.01 0.01 92 1017.6
20260505011347 77 89 6.1 9.6 0.00 0.01 0.01 92 1017.4
20260505010843 77 107 8.7 13.0 0.00 0.01 0.01 92 1017.3
20260505010339 77 93 7.8 9.6 0.00 0.01 0.01 92 1017.2
20260505005835 77 95 9.6 11.3 0.00 0.01 0.01 92 1017.1
20260505005332 77 102 9.6 9.6 0.00 0.01 0.01 92 1017.4
20260505004830 77 87 9.6 12.2 0.00 0.01 0.01 92 1017.2
20260505004326 77 95 9.6 13.9 0.00 0.01 0.01 92 1017.3
20260505003824 78 110 7.0 7.8 0.00 0.01 0.01 91 1017.1
20260505003321 78 98 7.8 9.6 0.05 0.01 0.01 91 1017.2
20260505002816 78 92 6.1 9.6 0.05 0.01 0.01 90 1017.1
20260505002314 78 101 7.0 9.6 0.00 0.00 0.00 90 1017.0
20260505001812 78 98 7.0 8.7 0.00 0.00 0.00 91 1017.1
20260505001309 78 97 6.1 7.0 0.00 0.00 0.00 91 1017.1
20260505000806 78 101 6.1 7.0 0.00 0.00 0.00 90 1017.1
20260505000304 78 98 5.2 7.0 0.00 0.00 0.00 90 1016.9
20260504235800 78 87 7.8 8.7 0.00 0.00 0.00 90 1017.0
20260504235256 78 75 5.2 8.7 0.00 0.00 0.00 90 1016.8
20260504234754 78 102 7.0 9.6 0.00 0.00 0.00 90 1017.0
20260504234251 78 90 7.0 9.6 0.00 0.00 0.00 89 1016.9
20260504233747 78 90 8.7 9.6 0.00 0.00 0.00 89 1016.9
20260504233243 78 88 6.1 7.0 0.00 0.00 0.00 89 1016.8
20260504232740 78 95 7.8 8.7 0.00 0.00 0.00 88 1016.7
20260504232237 78 105 6.1 7.8 0.00 0.00 0.00 88 1016.5
20260504231734 78 105 5.2 7.8 0.00 0.00 0.00 88 1016.3
20260504231230 78 107 6.1 8.7 0.00 0.00 0.00 87 1016.5
20260504230726 78 63 7.8 9.6 0.00 0.00 0.00 87 1016.5
20260504230225 78 108 6.1 8.7 0.00 0.00 0.00 87 1016.3
20260504225724 78 88 6.1 7.8 0.00 0.00 0.00 87 1016.6
20260504225219 78 108 7.0 8.7 0.00 0.00 0.00 86 1016.5
20260504224717 79 88 5.2 9.6 0.00 0.00 0.00 86 1016.3
20260504224214 79 86 7.8 9.6 0.00 0.00 0.00 86 1016.1
20260504223710 79 113 9.6 11.3 0.00 0.00 0.00 86 1016.3
20260504223206 79 93 8.7 11.3 0.00 0.00 0.00 85 1016.1
20260504222703 79 108 8.7 13.0 0.00 0.00 0.00 85 1015.9
20260504222200 79 108 10.4 12.2 0.00 0.00 0.00 85 1015.8
20260504221657 80 122 10.4 14.8 0.00 0.00 0.00 85 1015.7
20260504221154 80 93 10.4 13.0 0.00 0.00 0.00 84 1015.8
20260504220650 80 100 7.0 15.6 0.00 0.00 0.00 84 1015.8
20260504220148 80 107 10.4 12.2 0.00 0.00 0.00 84 1015.7
20260504215644 80 117 8.7 11.3 0.00 0.00 0.00 83 1015.8
20260504215142 81 73 13.9 15.6 0.00 0.00 0.00 83 1015.5
20260504214637 81 130 9.6 13.0 0.00 0.00 0.00 83 1016.2
20260504214134 81 107 7.0 8.7 0.00 0.00 0.00 82 1015.6
20260504213631 80 102 12.2 13.9 0.00 0.00 0.00 83 1015.5
20260504213127 80 80 13.0 14.8 0.00 0.00 0.00 83 1015.5
20260504212624 80 118 8.7 13.9 0.00 0.00 0.00 83 1015.7
20260504212121 81 96 13.0 15.6 0.00 0.00 0.00 82 1015.3
20260504211618 81 89 7.8 16.5 0.00 0.00 0.00 83 1015.4
20260504211114 81 99 12.2 13.9 0.00 0.00 0.00 81 1015.4
20260504210612 81 88 9.6 15.6 0.00 0.00 0.00 80 1015.6
20260504210108 81 96 11.3 15.6 0.00 0.00 0.00 80 1015.5
20260504205606 81 94 10.4 18.2 0.00 0.00 0.00 80 1015.3
20260504205104 81 100 10.4 12.2 0.00 0.00 0.00 80 1015.5
20260504204601 81 100 10.4 12.2 0.00 0.00 0.00 80 1015.4
20260504204100 81 101 10.4 13.0 0.00 0.00 0.00 81 1015.3
20260504203558 81 107 11.3 15.6 0.00 0.00 0.00 81 1015.4
20260504203056 82 100 14.8 18.2 0.00 0.00 0.00 79 1015.4
20260504202550 81 124 10.4 13.0 0.00 0.00 0.00 80 1015.3
20260504202048 82 112 8.7 13.0 0.00 0.00 0.00 79 1015.3
20260504201544 81 113 13.0 15.6 0.00 0.00 0.00 79 1015.2
20260504201038 82 123 9.6 13.0 0.00 0.00 0.00 78 1015.4
20260504200533 81 116 7.8 13.9 0.00 0.00 0.00 79 1015.2
20260504200031 81 99 12.2 14.8 0.00 0.00 0.00 78 1015.3
20260504195526 82 110 12.2 14.8 0.00 0.00 0.00 79 1015.4
20260504195023 83 109 11.3 18.2 0.00 0.00 0.00 78 1015.3
20260504194520 82 103 14.8 18.2 0.00 0.00 0.00 79 1015.5
20260504194015 82 96 14.8 19.1 0.00 0.00 0.00 79 1015.3
20260504193512 82 81 14.8 20.0 0.00 0.00 0.00 78 1015.4
20260504193011 82 112 14.8 16.5 0.00 0.00 0.00 78 1015.6
20260504192509 83 103 14.8 18.2 0.00 0.00 0.00 77 1015.3
20260504192007 82 98 13.9 18.2 0.00 0.00 0.00 77 1015.4
20260504191504 82 109 11.3 14.8 0.00 0.00 0.00 78 1015.6
20260504191000 83 122 12.2 18.2 0.00 0.00 0.00 77 1015.6
20260504190456 82 115 9.6 14.8 0.00 0.00 0.00 77 1015.7
20260504185952 82 89 14.8 20.9 0.00 0.00 0.00 78 1015.7
20260504185450 82 92 11.3 16.5 0.00 0.00 0.00 79 1015.6
20260504184946 82 114 13.0 14.8 0.00 0.00 0.00 78 1015.9
20260504184442 82 133 11.3 13.9 0.00 0.00 0.00 78 1016.2
20260504183937 82 107 16.5 20.0 0.00 0.00 0.00 77 1016.1
20260504183435 83 105 8.7 12.2 0.00 0.00 0.00 76 1015.8
20260504182933 82 131 13.0 14.8 0.00 0.00 0.00 78 1016.1
20260504182429 83 111 6.1 14.8 0.00 0.00 0.00 75 1016.1
20260504181927 84 111 7.8 20.9 0.00 0.00 0.00 76 1016.2
20260504181424 83 126 12.2 13.9 0.00 0.00 0.00 75 1016.1
20260504180922 83 136 15.6 20.9 0.00 0.00 0.00 76 1016.3
20260504180421 83 91 9.6 14.8 0.00 0.00 0.00 76 1016.4
20260504175919 84 80 11.3 16.5 0.00 0.00 0.00 75 1016.3
20260504175415 82 105 13.0 15.6 0.00 0.00 0.00 76 1016.7
20260504174913 84 123 11.3 15.6 0.00 0.00 0.00 75 1016.7
20260504174410 84 132 10.4 15.6 0.00 0.00 0.00 75 1016.9
20260504173908 84 117 5.2 13.0 0.00 0.00 0.00 74 1016.7
20260504173404 86 84 7.8 11.3 0.00 0.00 0.00 70 1016.8
20260504172901 84 125 7.8 13.0 0.00 0.00 0.00 72 1016.8
20260504172357 83 69 7.0 18.2 0.00 0.00 0.00 75 1016.8
20260504171853 83 120 10.4 12.2 0.00 0.00 0.00 74 1016.8
20260504171351 84 106 11.3 21.7 0.00 0.00 0.00 72 1016.6
20260504170848 84 98 13.0 19.1 0.00 0.00 0.00 74 1016.6
20260504170344 84 133 13.0 16.5 0.00 0.00 0.00 74 1017.0
20260504160303 82 99 11.3 15.6 0.00 0.00 0.00 76 1017.6
20260504150728 83 100 11.3 16.5 0.00 0.00 0.00 72 1017.8
20260504150225 83 115 14.8 21.7 0.00 0.00 0.00 73 1017.8
20260504141154 82 111 9.6 12.2 0.00 0.00 0.00 77 1017.9
20260504140651 81 109 13.0 19.1 0.00 0.00 0.00 78 1017.8
20260504140147 82 101 9.6 15.6 0.00 0.00 0.00 77 1018.0
20260504130615 83 115 7.8 12.2 0.00 0.00 0.00 75 1017.9
20260504130112 82 117 9.6 15.6 0.00 0.00 0.00 76 1018.0